Location: *
(28.2408°N, 53.4600°E)
Time: 04:52:13
(UTC+00:00)

Cosmos 2154 Rocket - Pass Details

Date: 22 September 2019
Orbit: 965 x 997 km, 82.9° (Epoch: 16 October)

Event Time Altitude Azimuth Distance (km) Brightness Sun altitude
Rises 15:21:52 0° 356° (N) 3,655 7.2 -13.7°
Reaches altitude 10° 15:24:22 10° 358° (N) 2,707 6.5 -14.2°
Maximum altitude 15:30:34 78° 85° (E) 991 3.9 -15.6°
Drops below altitude 10° 15:36:47 10° 171° (S) 2,709 6.1 -16.9°
Sets 15:39:17 0° 173° (S) 3,658 6.8 -17.5°
